Regional Weather Roundup
Issued by NWS

Home | Current Version | Previous Version | Text Only | Print | Product List | Glossary Off
Versions: 1 2 3 4 5 6 7 8 9 10 11 12 13 14 15 16 17 18 19 20 21 22 23 24 25 26 27 28 29 30 31 32 33 34 35 36 37 38 39 40 41 42 43 44 45 46 47 48 49 50

000
ASUS43 KDTX 302210
RWRMI
MICHIGAN HOURLY REGIONAL WEATHER ROUNDUP
NATIONAL WEATHER SERVICE DETROIT/PONTIAC MI
600 PM EDT SAT JUL 30 2016

NOTE: "FAIR" INDICATES FEW OR NO CLOUDS BELOW 12,000 FEET WITH NO
SIGNIFICANT WEATHER AND/OR OBSTRUCTION TO VISIBILITY.

MIZ047>049-052>055-059>063-066>070-074>076-081>083-302300-
SOUTHEAST LOWER MICHIGAN

CITY           SKY/WX    TMP DP  RH WIND       PRES   REMARKS
ADRIAN         CLOUDY    77  68  73 SE5       29.94F THUNDER
ALMA           LGT RAIN  70  69  96 N9        30.03S
ANN ARBOR      PTSUNNY   78  70  76 N10       29.96S
BAD AXE        CLOUDY    70  61  73 NE8       30.03S
CARO           LGT RAIN  69  64  83 N3        30.01S
DETROIT CITY   CLOUDY    77  67  71 N7        29.97R
DETROIT        PTSUNNY   79  67  66 N9        29.96S
FLINT          CLOUDY    74  66  76 NE12      30.01R
GROSSE ILE     CLOUDY    78  68  72 NE8       29.95S
HILLSDALE      CLOUDY    74  69  82 N3        29.96S
HOWELL         CLOUDY    71  67  88 NE6       30.00R

CITY           SKY/WX    TMP DP  RH WIND       PRES   REMARKS
JACKSON        PTSUNNY   73  69  87 N10       29.97F
LAMBERTVILLE   CLOUDY    79  70  73 E10G16    29.95S
LANSING        CLOUDY    70  65  84 NE8       30.00F
LAPEER         CLOUDY    73  64  74 NE6       30.00S
MASON          CLOUDY    72  66  81 N8G18     29.99S
MONROE         PTSUNNY   79  70  74 E7        29.94S
MT. CLEMENS    PTSUNNY   76  66  72 N10       29.95R
PONTIAC        CLOUDY    75  66  73 NE9       29.98S
PORT HOPE        N/A     71  63  75 NE16      30.01F
PORT HURON     CLOUDY    73  66  78 N8        29.98S
TRI CITIES     LGT RAIN  68  66  93 NE10      30.03S
MIDLAND        LGT RAIN  68  62  82 NE7       30.02S
TROY           CLOUDY    75  65  70 NE6       30.00R
SAGINAW HB     CLOUDY    68  64  88 N9        30.01S
$$
MIZ043>046-050>051-056>058-064>065-071>073-077>080-302300-
SOUTHWEST LOWER MICHIGAN

CITY           SKY/WX    TMP DP  RH WIND       PRES   REMARKS
BATTLE CREEK   CLOUDY    71  67  87 N9        29.99S
BENTON HARBOR  MOSUNNY   76  66  71 VRB6      29.96F
BIG RAPIDS     CLOUDY    72  64  77 E7        30.03S
COLDWATER      CLOUDY    75  69  84 N8        29.96S
FREMONT        CLOUDY    73  67  80 E9        30.01S
HOLLAND        CLOUDY    72  65  78 E8        30.00S
GRAND RAPIDS   CLOUDY    70  64  81 E9        30.01F
IONIA          DRIZZLE   67  65  90 NE8       30.00F
KALAMAZOO      PTSUNNY   74  65  73 N8        29.98F
LUDINGTON      CLOUDY    75  64  68 E8        30.01S
MARSHALL       CLOUDY    73  68  84 N3        29.97S
MOUNT PLEASANT CLOUDY    70  64  81 NE5       30.02S
MUSKEGON       CLOUDY    76  65  68 NE8       30.00F
SOUTH HAVEN    CLOUDY    74  67  78 NE9       29.98S
$$
MIZ016>042-302300-
NORTHERN LOWER MICHIGAN

CITY           SKY/WX    TMP DP  RH WIND       PRES   REMARKS
ALPENA         MOSUNNY   74  52  46 E9        30.07S
BEAVER ISLAND  SUNNY     76  53  44 NE9G16    30.06F
BELLAIRE       CLOUDY    82  48  30 NE13      30.01S
CADILLAC       CLOUDY    73  60  64 SE8       30.04S
CHARLEVOIX     SUNNY     79  47  33 NE13G20   30.06S
FRANKFORT      PTSUNNY   78  58  49 N5        30.01S
GAYLORD        MOSUNNY   76  47  35 VRB7      30.06S
GRAYLING       MOSUNNY   80  52  38 NE13      30.04S
HARBOR SPRINGS SUNNY     78  47  33 E13G21    30.04F
HOUGHTON LAKE  CLOUDY    72  59  63 SE7       30.05S
MANISTEE       CLOUDY    75  63  66 VRB6      30.01S
OSCODA         CLOUDY    72  57  58 NE14      30.04F
PELLSTON       SUNNY     79  43  27 E12       30.06F
ROGERS CITY    CLOUDY    71  49  44 E9        30.08F
TRAVERSE CITY  PTSUNNY   82  53  36 N9        29.98F
$$
MIZ007>008-015-302300-
EASTERN UPPER MICHIGAN

CITY           SKY/WX    TMP DP  RH WIND       PRES   REMARKS
KINROSS        SUNNY     77  54  44 E7        30.07F
MACKINAC ISLAN SUNNY     73  54  51 E9        30.08S
NEWBERRY       PTSUNNY   75  55  50 S8        30.07S
S. S. MARIE    SUNNY     79  53  40 SE7       30.06S
MUNISING         N/A     73  62  68 NE13      30.06F
$$
MIZ004>006-011>014-085-302300-
CENTRAL UPPER MICHIGAN

CITY           SKY/WX    TMP DP  RH WIND       PRES   REMARKS
MANISTIQUE     SUNNY     76  54  46 E8        30.06F
ESCANABA       SUNNY     75  52  43 SE9       30.05F
MENOMINEE      SUNNY    N/A N/A N/A NE12      30.06F
SAWYER-GWINN   PTSUNNY   77  54  44 E12       30.07F
$$
MIZ001>003-009>011-084-302300-
WESTERN UPPER MICHIGAN

CITY           SKY/WX    TMP DP  RH WIND       PRES   REMARKS
IRON MOUNTAIN  MOSUNNY   79  49  34 S8        30.06S
HOUGHTON       SUNNY     76  53  44 SE8       30.06S
COPPER HARBOR    N/A     76  53  44 S5        30.05F
IRONWOOD       PTSUNNY   77  59  53 NE5       30.01F
$$

ABBREVIATIONS USED IN REMARKS
   TC - TEMPERATURE IN CELSIUS
  WCI - WIND CHILL INDEX
   HX - HEAT INDEX
  VSB - VISIBILITY





USA.gov is the U.S. government's official web portal to all federal, state and local government web resources and services.